Rechercher aéroport 
image banner adimage banner ad
image banner ad

SBAR - Santa Maria

Situé à Aracaju, Brazil

ICAO - SBAR, IATA - AJU

Données fournies par Airmate  

Information générale

Coordonnées: S10°59'7" W37°4'24"
Élévation : 22 feet MSL.
Variation magnétique : -23° East
Voir autres Aéroports à Sergipe

Données opérationnelles

Accessible au public
Heure actuelle UTC:
Heure actuelle locale:
Météo
METAR: SBAR 262200Z 12009KT 9999 SCT018 BKN100 28/23 Q1011
TAF: TAF SBAR 261547Z 2618/2718 09018KT 9999 SCT017 TN26/2708Z TX30/2716Z BECMG 2701/2703 05008KT BECMG 2712/2714 09018KT RMK PHQ
Voir NOTAMs / SUP AIP / TFR affectant cet aéroport [VIEW]
Fréquences de communication: [VIEW]

Pistes:

Identifiant RWYQFULongueur (ft)Largeur (ft)SurfaceLDA (ft)
1292°7218148
30272°7218148

Coordonnées de l'aéroport

Adresse: Aracaju Brazil

Autres services d'aviation

Clubs d'aviation (sans but lucratif)

Aeroclube De Sergipe

Aeroclube De Sergipe
+55793241-3646

Vue satellite de SBAR